Flag for India Weather past 2 weeks in Jalandhar, Punjab, India

Now
86 °F

Haze.


Feels Like: 95 °F
Forecast: 86 / 106 °F
Wind: No wind

Location: Amritsar Airport

Current Time: Jul 4, 2015 at 4:34:01 AM

Latest Report: Jul 4, 2015 at 3:30 AM


Visibility: 2 mi

Pressure: 29.53 "Hg

Humidity: 70%

Dew point: 75 °F

Location of JalandharLocation

Historic Weather in Jalandhar — Graph

°F

Jalandhar temperature yesterday

Maximum temperature yesterday: 99 °F (at 3:00 PM)
Minimum temperature yesterday: 82 °F (at 5:00 AM)
Average temperature yesterday: 91 °F

Past Weeks' High & Low Weather Summary

 TemperatureHumidityPressure
High109 °F (Jun 19, 4:00 PM)100% (Jun 24, 4:00 AM)29.71 "Hg (Jun 24, 4:00 AM)
Low73 °F (Jun 21, 1:30 AM)25% (Jun 19, 1:30 PM)29.36 "Hg (Jun 22, 5:30 PM)
Average89 °F62%29.52 "Hg
* Reported Jun 19 2:30 AM — Jul 4 3:00 AM, Jalandhar, Weather by CustomWeather, © 2015

Note: Actual official high and low records may vary slightly from our data, if they occured in-between our weather recording intervals... More about our weather records

Advertising

Jalandhar weather history for previous 24 hours

 ConditionsComfort  
Time TempWeatherWind HumidityBarometerVisibility
3:00 AM
Sat, Jul 4
86 °FHaze.6 mph75%29.53 "Hg2 mi
2:30 AM86 °FHaze.3 mph75%29.53 "Hg2 mi
2:00 AM88 °FHaze.6 mph70%29.53 "Hg2 mi
1:30 AM88 °FHaze.No wind70%29.53 "Hg2 mi
1:00 AM90 °FHaze.No wind67%29.53 "Hg2 mi
12:30 AM90 °FHaze.No wind67%29.53 "Hg2 mi
12:00 AM90 °FHaze.No wind71%29.53 "Hg2 mi
11:30 PM
Fri, Jul 3
91 °FHaze.No wind67%29.53 "Hg2 mi
11:00 PM91 °FHaze.No wind67%29.53 "Hg2 mi
10:30 PM91 °FHaze.No wind67%29.53 "Hg2 mi
10:00 PM91 °FHaze.No wind67%29.53 "Hg2 mi
9:30 PM91 °FHaze.3 mph67%29.53 "Hg2 mi
9:00 PM93 °FHaze.3 mph63%29.53 "Hg2 mi
8:30 PM93 °FHaze.5 mph63%29.53 "Hg2 mi
8:00 PM93 °FHaze.5 mph63%29.53 "Hg2 mi
7:30 PM95 °FHaze.1 mph56%29.50 "Hg2 mi
7:00 PM95 °FHaze.No wind53%29.50 "Hg2 mi
6:30 PM97 °FScattered clouds.No wind47%29.50 "Hg2 mi
6:00 PM99 °FScattered clouds.2 mph44%29.50 "Hg2 mi
5:30 PM99 °FScattered clouds.3 mph42%29.50 "Hg2 mi
5:00 PM99 °FScattered clouds.2 mph44%29.53 "Hg2 mi
4:30 PM99 °FScattered clouds.3 mph42%29.53 "Hg2 mi
4:00 PM99 °FBroken clouds.6 mph42%29.53 "Hg2 mi
3:30 PM99 °FBroken clouds.3 mph44%29.53 "Hg2 mi
3:00 PM99 °FBroken clouds.6 mph47%29.56 "Hg2 mi
2:30 PM97 °FBroken clouds.5 mph47%29.56 "Hg2 mi
2:00 PM97 °FHaze.3 mph50%29.59 "Hg2 mi
1:30 PM97 °FHaze.2 mph47%29.59 "Hg2 mi
1:00 PM97 °FHaze.6 mph50%29.59 "Hg2 mi
12:30 PM97 °FHaze.2 mph47%29.59 "Hg2 mi
12:00 PM95 °FHaze.2 mph50%29.59 "Hg2 mi
11:30 AM97 °FHaze.5 mph50%29.59 "Hg2 mi
11:00 AM95 °FHaze.3 mph53%29.59 "Hg2 mi
10:30 AM93 °FHaze.1 mph56%29.59 "Hg2 mi
10:00 AM93 °FHaze.No wind59%29.59 "Hg2 mi
9:30 AM91 °FScattered clouds.2 mph63%29.59 "Hg2 mi
9:00 AM91 °FScattered clouds.No wind56%29.59 "Hg2 mi
8:30 AM90 °FPartly sunny.No wind59%29.59 "Hg2 mi
8:00 AM86 °FBroken clouds.No wind70%29.59 "Hg2 mi
7:30 AM86 °FBroken clouds.No wind70%29.59 "Hg2 mi
6:30 AM82 °FBroken clouds.2 mph70%29.56 "Hg2 mi
6:00 AM82 °FPartly sunny.2 mph70%29.56 "Hg2 mi
5:30 AM82 °FPassing clouds.1 mph66%29.56 "Hg2 mi
5:00 AM82 °FFog.10 mph66%29.56 "Hg2 mi
4:30 AM84 °FFog.8 mph74%29.59 "Hg2 mi
Weather by CustomWeather, © 2015

See weather overviewHow to use our weather pages